Regional Weather Roundup
Issued by NWS

Home | Current Version | Previous Version | Text Only | Print | Product List | Glossary On
Versions: 1 2 3 4 5 6 7 8 9 10 11 12 13 14 15 16 17 18 19 20 21 22 23 24 25 26 27 28 29 30 31 32 33 34 35 36 37 38 39 40 41 42 43 44 45 46 47 48 49 50
000
ASHW40 PHFO 181943
RWRHI

WEATHER ROUNDUP FOR HAWAII
NATIONAL WEATHER SERVICE HONOLULU HI
900 AM HST SAT NOV 18 2017

THIS IS AN AUTOMATED REPORT THAT HAS NOT BEEN QUALITY CONTROLLED.

NOTE..."FAIR" INDICATES FEW OR NO CLOUDS BELOW 12,000 FEET WITH NO
SIGNIFICANT WEATHER AND/OR OBSTRUCTIONS TO VISIBILITY.

* - THESE SITES REPORT LIMITED FIELDS
# - BUOY DATA PROVIDED BY PACIFIC ISLANDS OCEAN OBSERVING SYSTEM.

HIZ001>004-182000-
KAUAI-NIIHAU-

CITY           SKY/WX    TMP DP  RH WIND       PRES   REMARKS
LIHUE APT      SUNNY     72  65  78 W5        29.93R
PORT ALLEN*      N/A     75 N/A N/A NW5         N/A
POIPU*           N/A     72 N/A N/A N3G9        N/A
PRINCEVILLE*     N/A     73 N/A N/A W2          N/A
KOKOLE POINT*  NOT AVBL
MOLOAA DAIRY*    N/A     75  66  73 W5          N/A
WAIMEA HTS*      N/A     79  64  61 E3          N/A
PUU OPAE*        N/A     70  55  60 NW3G9       N/A
PUU LUA*       NOT AVBL
MAKAHA RIDGE*    N/A     72  63  73 NE1         N/A
$$

HIZ005>011-182000-
OAHU-

CITY           SKY/WX    TMP DP  RH WIND       PRES   REMARKS
HONOLULU       MOSUNNY   76  62  62 NW5       29.91R
KALAELOA       SUNNY     76  65  68 NE6       29.92R
KANEOHE MCB    SUNNY     77  67  71 CALM      29.89R
WHEELER FIELD  NOT AVBL
BELLOWS*         N/A    N/A N/A N/A SW6         N/A
KAHUKU*          N/A    N/A N/A N/A N2          N/A
WHEELER*         N/A    N/A N/A N/A N3          N/A
WAIANAE HARBOR   N/A    N/A N/A N/A S1          N/A
DILLINGHAM*    NOT AVBL
KAHUKU TRN*      N/A     73  63  68 SE3         N/A
KAWAILOA*        N/A     70  63  78 N3          N/A
KII*             N/A     75  64  69 N2          N/A
MAKUA RANGE*     N/A     73  59  60 W6          N/A
OAHU FOREST NW   N/A    N/A N/A N/A N3G10       N/A
SCHOFIELD BRK*   N/A     57  50  77 MISG        N/A
SCHOFIELD S*   NOT AVBL
WAIANAE VLY*     N/A     61  46  59 S3          N/A
KUAOKALA*        N/A     73  63  68 NE6G12      N/A
HONOULIUULI*   NOT AVBL
MOKUOLOE IS*   NOT AVBL
PALEHUA*         N/A     70  59  68 S3          N/A
WAIAWA PHB*    NOT AVBL
$$

HIZ012>013-182000-
MOLOKAI-

CITY           SKY/WX    TMP DP  RH WIND       PRES   REMARKS
MOLOKAI AIRPT  MOSUNNY   76  64  66 N8        29.92R
KALAUPAPA      NOT AVBL
MAKAPULAPAI*     N/A     79  64  61 E3          N/A
MOLOKAI 1*       N/A     70  57  64 N1          N/A
PUU ALII*        N/A     55  55 100 CALM        N/A
$$

HIZ016-182000-
KAHOOLAWE-

CITY           SKY/WX    TMP DP  RH WIND       PRES   REMARKS
KAHOOLAWE*     NOT AVBL
HAKIOAWA*        N/A     73  63  69 MISG      30.34R
HONOKANAIA*    NOT AVBL
KANELOA*         N/A     73  64  73 NE9G15    29.95R
KEALIALALO*    NOT AVBL
LUA MAKIKA*    NOT AVBL
$$

HIZ014>015-182000-
LANAI-

CITY           SKY/WX    TMP DP  RH WIND       PRES   REMARKS
LANAI CITY     FAIR      71  62  73 NE5       29.97R
LANAI 1*       NOT AVBL
$$

HIZ017>028-182000-
MAUI-

CITY           SKY/WX    TMP DP  RH WIND       PRES   REMARKS
KAHULUI        MOSUNNY   77  66  68 N8        29.91R
KAPALUA-W MAUI MOSUNNY   73  64  73 NE8       29.92
HANA AIRPORT   SUNNY    N/A N/A N/A W3        29.94R
HANA*            N/A     75 N/A N/A W5          N/A
HALEAKALA SUMM   N/A     46  18  31 SW8         N/A
MAALAEA BAY*     N/A     77 N/A N/A NE7         N/A
HALEAKALA*     NOT AVBL
KAUPO GAP*     NOT AVBL
KULA 1*          N/A     54  42  65 E3          N/A
$$

HIZ023>026-182000-
BIG ISLAND OF HAWAII COAST AND LOWER SLOPES-

CITY           SKY/WX    TMP DP  RH WIND       PRES   REMARKS
KAILUA KONA    PTSUNNY   78  63  59 NE3       29.89R
HILO           SUNNY     74  63  68 CALM      29.91R
HONOKAA*         N/A     64 N/A N/A VRB1        N/A
KAWAIHAE MWT*    N/A     79 N/A N/A SE3         N/A
KAWAIHAE*        N/A     79 N/A N/A S2        29.90S
SOUTH POINT*     N/A     73 N/A N/A N7          N/A
UPOLU AIRPORT* NOT AVBL
KAMUELA*       PTCLDY    70  57  64 CALM      30.00S
HAKALAU*         N/A     56  50  80 NE3         N/A
KALOKO-HONOKO*   N/A     81  66  61 SW3       29.88S
PALI 2*          N/A     72  54  53 NW3         N/A
KEALAKOMO*       N/A     79  59  50 SE6         N/A
KAUPULEHU*       N/A     73  59  60 NW5         N/A
KAPAPALA*        N/A     74  59  59 S2          N/A
LOWER KAHUKU*    N/A    N/A N/A N/A SE1         N/A
PUHE CS*         N/A     75  59  57 SE2         N/A
PUHO CS*         N/A     80  61  51 NE3         N/A
PTA KEAMUKU*     N/A     66  55  68 W3          N/A
WAIKOLOA*        N/A    N/A N/A N/A N3          N/A
$$

HIZ027>028-182000-
BIG ISLAND OF HAWAII INTERIOR AND SUMMMITS-

CITY           SKY/WX    TMP DP  RH WIND       PRES   REMARKS
BRADSHAW FIELD NOT AVBL
MK VISITOR CEN   N/A     50  32  50 NW10        N/A
MAUNA KEA*       N/A     27  23  86 S53G66      N/A  WCI   6
MAUNA LOA*       N/A     45   9  23 MISG        N/A
MAUNA LOA 1*   NOT AVBL
PTA KIPUKA*      N/A     70  45  40 NE7         N/A
PTA RANGE 17*    N/A     66  43  42 W2          N/A
PTA WEST*        N/A     70  52  52 NW6G12      N/A
NENE CABIN*      N/A     61  36  39 NW12G22     N/A
AHUMOA*          N/A     60  41  50 SW9         N/A
PTA PORTABLE*  NOT AVBL
PUU MALI*        N/A     52 N/A N/A S3G13       N/A
$$

HIC003-182000-
NORTHWEST ISLANDS-

CITY           SKY/WX    TMP DP  RH WIND       PRES   REMARKS
MIDWAY ISLAND  MOCLDY    73  66  78 E25       30.12R
MIDWAY NOS*      N/A     73 N/A N/A MISG      30.11R
FRENCH FRIGATE NOT AVBL
$$

PHZ110>124-180-182000-
BUOY REPORTS

STATION/POSITION TIME  TEMP    WIND        PRES    WAVE   SWELL
                       AIR SEA DIR/SP/G            HT/PER HT/DIR
                 (UTC) (F)     (DEG/KT/KT) (MB)    (FT/S) (FT/D)
BUOY 51001       1920   72 78   10/ 14/ 19 1015.3
BUOY 51101       1850   72 78  360/ 12/ 16 1015.6R   9/10   8/ 20
BUOY 51100       NOT AVBL
BUOY 51002       1920   78 80   50/ 12/ 14 1012.1
BUOY 51003       1850   77 81   40/ 10/ 14 1012.4R   6/12   5/ 10
BUOY 51004       1920   78 79  340/  6/  8 1012.3
WAIMEA BAY#      1902      77                N/A     5/12   3/ 10
MOKAPU POINT#    1904      79                N/A     6/11   3/ 30
LANAI#           NOT AVBL
BARBERS PT 2#    NOT AVBL
PAUWELA#         NOT AVBL
HILO#            1927      79                N/A     7/11   3/ 20
KANEOHE BAY#     NOT AVBL
KANEOHE BAY 2#   NOT AVBL
HANALEI#         1922      80                N/A     6/12   3/ 20
KAHULUI HARBOR   NOT AVBL
HONOLULU HARBOR  NOT AVBL
PEARL HARBOR#    1900      79                N/A     2/14   2/180
KILO NALU        NOT AVBL
HILO HARBOR      NOT AVBL
MOKUOLOE         NOT AVBL
NAWILIWILI       NOT AVBL
WHOTS BUOY       NOT AVBL
BUOY 51028       NOT AVBL
$$

......................KEY........................................
  SKY/WX - SKY CONDITIONS/PRESENT WEATHER
  TMP    - TEMPERATURE IN FAHRENHEIT
  DWPT   - DEWPOINT IN FAHRENHEIT
  RH     - RELATIVE HUMIDITY IN PERCENT
  WIND   - DIRECTION AND SPEED /MPH FOR ISLANDS...KTS FOR BUOYS/
  PRES   - MEAN SEA LEVEL PRESSURE IN INCHES OF HG
  VSB    - VISIBILITY IN MILES
  HX     - HEAT INDEX
  WCI    - WIND CHILL INDEX
  VRB    - VARIABLE WIND DIRECTION
  N/A    - NOT AVAILABLE




USA.gov is the U.S. government's official web portal to all federal, state and local government web resources and services.